Flag for Germany Weather past 2 weeks in Riesa, Saxony, Germany

Now
65 °F

Overcast.


Feels Like: 65 °F
Forecast: 54 / 71 °F
Wind: 2 mph from Northwest

Location: Dresden-Klotzsche

Current Time: Sep 2, 2015 at 8:07:48 PM

Latest Report: Sep 2, 2015 at 7:00 PM


Visibility: 37 mi

Pressure: 30.00 "Hg

Humidity: 59%

Dew point: 50 °F

Location of RiesaLocation

Historic Weather in Riesa — Graph

°F

Riesa temperature yesterday

Maximum temperature yesterday: 86 °F (at 3:00 PM)
Minimum temperature yesterday: 60 °F (at 11:00 PM)
Average temperature yesterday: 74 °F

Past Weeks' High & Low Weather Summary

 TemperatureHumidityPressure
High92 °F (Aug 31, 4:00 PM)100% (Aug 20, 7:00 AM)30.31 "Hg (Aug 20, 7:00 AM)
Low51 °F (Aug 22, 6:00 AM)29% (Aug 22, 3:00 PM)29.68 "Hg (Sep 1, 5:00 PM)
Average67 °F68%30.03 "Hg
* Reported Aug 18 7:00 PM — Sep 2 7:00 PM, Riesa, Weather by CustomWeather, © 2015

Note: Actual official high and low records may vary slightly from our data, if they occured in-between our weather recording intervals... More about our weather records

Advertising

Riesa weather history for previous 24 hours

 ConditionsComfort  
Time TempWeatherWind HumidityBarometerVisibility
7:00 PM
Wed, Sep 2
65 °FOvercast.2 mph59%30.00 "Hg37 mi
6:00 PM66 °FPartly sunny.2 mph52%29.99 "Hg37 mi
4:00 PM66 °FPassing clouds.2 mph58%30.01 "Hg37 mi
3:00 PM66 °FPassing clouds.3 mph55%30.01 "Hg37 mi
2:00 PM64 °FScattered clouds.3 mph64%30.03 "Hg37 mi
1:00 PM62 °FScattered clouds.3 mph62%30.04 "Hg31 mi
12:00 PM61 °FScattered clouds.5 mph68%30.05 "Hg28 mi
11:00 AM61 °FScattered clouds.5 mph74%30.05 "Hg22 mi
10:00 AM59 °FScattered clouds.5 mph81%30.05 "Hg16 mi
9:00 AM58 °FPartly sunny.5 mph89%30.04 "Hg16 mi
8:00 AM56 °FOvercast.2 mph91%30.04 "Hg12 mi
7:00 AM56 °FOvercast.3 mph93%30.03 "Hg7 mi
4:00 AM57 °FLow clouds.5 mph95%30.00 "Hg9 mi
3:00 AM58 °FLow clouds.5 mph95%29.98 "Hg11 mi
2:00 AM58 °FLight rain. Low clouds.6 mph96%29.96 "Hg9 mi
1:00 AM58 °FRain. Low clouds.6 mph95%29.95 "Hg6 mi
11:00 PM
Tue, Sep 1
60 °FLow clouds.6 mph97%29.90 "Hg16 mi
10:00 PM61 °FSprinkles. Low clouds.8 mph96%29.87 "Hg11 mi
9:00 PM64 °FLow clouds.7 mph97%29.84 "Hg10 mi
8:00 PM68 °FOvercast.5 mph92%29.79 "Hg8 mi
Weather by CustomWeather, © 2015

See weather overviewHow to use our weather pages